User: anonymous   Login
Location: Bothell
(47.7630°N, 122.2040°W)
Time: 02:27:45
(UTC-08:00)
Language:

Oscar 16 - Orbit

View from above orbital plane
View from above orbital plane
View from above satellite
View from above satellite

Ground track
Ground track

The orbit data is extracted from the following two-line orbital elements,

1 20439U 90005D   17321.48115806 +.00000025 +00000-0 +25437-4 0  9991
2 20439 098.6240 259.8830 0011923 072.0461 044.5026 14.32701404453100
Epoch (UTC): 17 November 2017 11:32:52
Eccentricity: 0.0011923
inclination: 98.6240°
perigee height: 774 km
apogee height: 791 km
right ascension of ascending node: 259.8830°
argument of perigee: 72.0461°
revolutions per day: 14.32701404
mean anomaly at epoch: 44.5026°
orbit number at epoch: 45310

The dashed part of the orbit path shows where the satellite is in the earth's shadow,  

DLR